Regional Weather Roundup
Issued by NWS Mt. Holly, NJ

Home | Current Version | Previous Version | Text Only | Print | Product List | Glossary On
Versions: 1 2 3 4 5 6 7 8 9 10 11 12 13 14 15 16 17 18 19 20 21 22 23 24 25 26 27 28 29 30 31 32 33 34 35 36 37 38 39 40 41 42 43 44 45 46 47 48 49 50
000
ASUS41 KPHI 030010
RWRPHI

REGIONAL WEATHER ROUNDUP
NATIONAL WEATHER SERVICE MOUNT HOLLY NJ
800 PM EDT TUE SEP 02 2014

NOTE:  "FAIR" INDICATES FEW OR NO CLOUDS BELOW 12,000 FEET WITH NO
SIGNIFICANT WEATHER AND/OR OBSTRUCTIONS TO VISIBILITY.

 * = STATION DOES NOT REPORT PRECIPITATION (E.G. RAIN, SNOW, ETC.)
        OR FOG.

NJZ015>026-030100-
SOUTHERN NEW JERSEY

CITY           SKY/WX    TMP DP  RH WIND       PRES   REMARKS
POMONA         CLEAR     82  73  74 S7        29.85F
6HR MIN TEMP:  82; 6HR MAX TEMP:  92;

RIO GRANDE*    CLEAR     81  70  69 S6        29.88R
MILLVILLE      CLEAR     80  72  76 CALM      29.87R
WRIGHTSTOWN    CLEAR     80  72  76 SW8       29.83R
MOUNT HOLLY    PTCLDY    82  71  69 CALM      29.84S
TRENTON        CLEAR     84  69  60 SW6       29.83S
6HR MIN TEMP:  84; 6HR MAX TEMP:  91;


$$
NJZ001>014-030100-
NORTHERN NEW JERSEY

CITY           SKY/WX    TMP DP  RH WIND       PRES   REMARKS
SUSSEX         CLEAR     81  69  67 CALM      29.82R
ANDOVER*         N/A     79  68  69 CALM      29.83S
MORRISTOWN     PTCLDY    84  68  58 SW6       29.82R
NEWARK         MOCLDY    89  65  44 SW15      29.80R HX  91
TETERBORO      CLEAR     88  65  46 SW8       29.79R HX  90
CALDWELL       CLEAR     84  66  54 CALM      29.81R
SOMERVILLE     CLEAR     81  68  64 CALM      29.80S
ALLAIRE*       CLEAR     84  70  61 SW7       29.84S
TOMS RIVER*    CLEAR     81  72  74 S3        29.84F

$$
PAZ043-044-047-054-055-060>062-066>071-030100-
EASTERN PENNSYLVANIA

CITY           SKY/WX    TMP DP  RH WIND       PRES   REMARKS
PHILADELPHIA   TSTM      77  67  71 W25G46    29.91R
6HR MIN TEMP:  87; 6HR MAX TEMP:  93; 6HR PCP: TRACE;

NORTH PHILA    PTCLDY    88  68  51 SW9       29.85S HX  91
BLUE BELL      MOCLDY    81  72  74 SW6G18    29.85R
DOYLESTOWN     PTCLDY    83  70  64 S6        29.84S
QUAKERTOWN*    MOCLDY    81  72  74 MISG      29.85S
POTTSTOWN      LGT RAIN  77  68  73 SW8       29.88R
LANCASTER      CLOUDY    72  68  87 S7        29.85S
COATESVILLE    LGT RAIN  72  68  88 S3        29.89S
READING        LGT RAIN  77  71  82 S7        29.82F
6HR MIN TEMP:  77; 6HR MAX TEMP:  91; 6HR PCP:  0.03;

ALLENTOWN      MOCLDY    81  70  69 W3        29.82F
6HR MIN TEMP:  81; 6HR MAX TEMP:  91; 6HR PCP: TRACE;

MOUNT POCONO   MOCLDY    75  65  70 SW15G25   29.89F
6HR MIN TEMP:  75; 6HR MAX TEMP:  83;

HAZLETON       CLOUDY    73  68  83 S6        29.90S
WILKES BARRE   RAIN      81  67  62 SW8       29.82S

$$
DEZALL-MDZ008-012-015-019-020-030100-
DELAWARE AND EASTERN MARYLAND

CITY           SKY/WX    TMP DP  RH WIND       PRES   REMARKS
WILMINGTON     LGT RAIN  74  67  78 W6        29.87R
6HR MIN TEMP:  75; 6HR MAX TEMP:  91; 6HR PCP:  0.21;

DOVER          PTCLDY    84  71  66 S6        29.85R
GEORGETOWN     CLEAR     84  69  60 S9        29.88R
6HR MIN TEMP:  84; 6HR MAX TEMP:  95;

EASTON         MOCLDY    88  73  62 CALM      29.90R HX  96
PATUXENT       PTCLDY    84  73  69 SW6       29.86R HX  90
OCEAN CITY     CLEAR     84  75  74 SW8       29.88S HX  92
WALLOPS ISLAND CLEAR     83  78  85 SW10      29.89S HX  93
CAMBRIDGE      PTCLDY    84  72  65 CALM      29.86R
SALISBURY      CLEAR     86  72  62 S6        29.88R HX  92

$$
PAZ001-021-NYZ056-072-MDZ011-DCZ001-030100-
OTHER NEARBY LOCATIONS

CITY           SKY/WX    TMP DP  RH WIND       PRES   REMARKS
HARRISBURG     CLOUDY    75  69  81 SW8       29.83F
STATE COLLEGE  MOCLDY    72  68  88 W7        29.92R
WILLIAMSPORT   LGT RAIN  75  69  81 W16       29.82R
BINGHAMTON     LGT RAIN  75  66  73 S7        29.80F
NEW YORK CITY  CLEAR     86  64  47 W7        29.83S
BALTIMORE      TSTM      74  71  91 W12G21    29.90R
WASHINGTON DC  CLOUDY    81  72  74 N5        29.88R THUNDER

$$


USA.gov is the U.S. government's official web portal to all federal, state and local government web resources and services.